Location: *
(32.8667°N, 13.1833°E)
Time: 16:41:24
(UTC+00:00)

Cosmos 2360 Rocket - Pass Details

Date: 18 July 2019
Orbit: 835 x 844 km, 71.0° (Epoch: 22 August)

Event Time Altitude Azimuth Distance (km) Brightness Sun altitude
Exits shadow 19:14:07 10° 157° (SSE) 2,466 4.1 -11.5°
Reaches altitude 10° 19:14:11 10° 156° (SSE) 2,447 4.1 -11.5°
Maximum altitude 19:18:44 26° 102° (ESE) 1,600 3.1 -12.3°
Drops below altitude 10° 19:23:17 10° 48° (NE) 2,454 4.5 -13.1°
Sets 19:26:05 0° 36° (NE) 3,390 5.4 -13.6°
